Weather History for KPYM - September, 2012

Change the Weather History Date:

Saturday, September 15, 2012

  Actual Average Record
Temperature  
Mean Temperature 63 °F -  
Max Temperature 73 °F 73 °F 87 °F (1976)
Min Temperature 51 °F 52 °F 34 °F (1975)
Degree Days  
Heating Degree Days 2    
Growing Degree Days 13 (Base 50)    
Moisture  
Dew Point 57 °F    
Average Humidity 79    
Maximum Humidity 100    
Minimum Humidity 45    
Precipitation  
Precipitation 0.01 in - - ()
Sea Level Pressure  
Sea Level Pressure 30.03 in    
Wind  
Wind Speed 5 mph (West)    
Max Wind Speed 12 mph    
Max Gust Speed 17 mph    
Visibility 10 miles    
Events Rain    
Averages and records for this station are not official NWS values.
T = Trace of Precipitation, MM = Missing Value Source: NWS Daily Summary

Daily Weather History Graph

Daily Weather History Graph

Search for Another Location

Airport or City:

Trip Planner

Search our weather history database for the weather conditions in past years. The results will help you decide how hot, cold, wet, or windy it might be!

Date:

Astronomy

Sep. 15, 2012 Rise Set
Actual Time 6:23 AM EDT 6:51 PM EDT
Civil Twilight 5:55 AM EDT 7:19 PM EDT
Nautical Twilight 5:22 AM EDT 7:52 PM EDT
Astronomical Twilight 4:48 AM EDT 8:26 PM EDT
Moon 5:51 AM EDT (9/15) 6:19 PM EDT (9/15)
Length of Visible Light 13h 24m
Length of Day
12h 28m
Waning Crescent, 0% of the Moon is Illuminated
Sep 15
Waning Crescent
Sep 15
New
Sep 22
First Quarter
Sep 29
Full
Oct 8
Last Quarter

Hourly Weather History & Observations

Time (EDT) Temp. Dew Point Humidity Pressure Visibility Wind Dir Wind Speed Gust Speed Precip Events Conditions
12:52 AM 64.9 °F 63.0 °F 93% 30.10 in 10.0 mi South 3.5 mph - N/A   Clear
1:52 AM 64.9 °F 63.0 °F 93% 30.08 in 10.0 mi SSW 4.6 mph - N/A   Partly Cloudy
2:35 AM 64.4 °F 62.6 °F 94% 30.06 in 10.0 mi SW 4.6 mph - 0.01 in   Scattered Clouds
2:40 AM 64.4 °F 62.6 °F 94% 30.06 in 9.0 mi SW 4.6 mph - 0.01 in   Mostly Cloudy
3:52 AM 64.9 °F 63.0 °F 93% 30.04 in 10.0 mi SSW 4.6 mph - N/A   Scattered Clouds
4:07 AM 64.4 °F 62.6 °F 94% 30.04 in 2.5 mi South 3.5 mph - N/A   Mostly Cloudy
4:25 AM 62.6 °F 62.6 °F 100% 30.04 in 9.0 mi SW 3.5 mph - N/A   Mostly Cloudy
4:52 AM 64.0 °F 62.1 °F 93% 30.04 in 10.0 mi SW 3.5 mph - N/A   Scattered Clouds
5:52 AM 64.0 °F 62.1 °F 93% 30.04 in 10.0 mi SSW 3.5 mph - N/A   Partly Cloudy
6:52 AM 63.0 °F 61.0 °F 93% 30.04 in 10.0 mi Calm Calm - N/A   Clear
7:52 AM 64.9 °F 63.0 °F 93% 30.03 in 10.0 mi WSW 5.8 mph - N/A   Partly Cloudy
8:06 AM 66.2 °F 62.6 °F 88% 30.03 in 10.0 mi SW 5.8 mph - N/A   Partly Cloudy
8:52 AM 66.0 °F 63.0 °F 90% 30.04 in 10.0 mi WSW 6.9 mph - N/A   Mostly Cloudy
9:38 AM 64.4 °F 62.6 °F 94% 30.04 in 10.0 mi WNW 10.4 mph - N/A   Overcast
9:52 AM 64.9 °F 61.0 °F 87% 30.04 in 10.0 mi NW 9.2 mph - N/A   Overcast
10:52 AM 64.0 °F 59.0 °F 84% 30.04 in 8.0 mi WNW 9.2 mph - 0.01 in Rain Light Rain
11:08 AM 62.6 °F 55.4 °F 77% 30.03 in 10.0 mi NW 10.4 mph - 0.00 in Rain Light Rain
11:52 AM 64.9 °F 57.0 °F 75% 30.03 in 10.0 mi WNW 9.2 mph - 0.00 in   Mostly Cloudy
12:52 PM 70.0 °F 54.0 °F 57% 30.01 in 10.0 mi NNW 11.5 mph 16.1 mph N/A   Scattered Clouds
1:52 PM 72.0 °F 53.1 °F 51% 29.99 in 10.0 mi WNW 8.1 mph - N/A   Clear
2:52 PM 71.1 °F 50.0 °F 47% 29.98 in 10.0 mi NW 11.5 mph - N/A   Partly Cloudy
3:52 PM 73.9 °F 51.1 °F 45% 29.98 in 10.0 mi NW 9.2 mph - N/A   Mostly Cloudy
4:52 PM 72.0 °F 50.0 °F 46% 29.99 in 10.0 mi NNW 9.2 mph 17.3 mph N/A   Partly Cloudy
5:52 PM 68.0 °F 48.0 °F 49% 30.00 in 10.0 mi NW 5.8 mph - N/A   Partly Cloudy
6:52 PM 64.9 °F 48.0 °F 54% 30.01 in 10.0 mi WNW 5.8 mph - N/A   Clear
7:52 PM 57.9 °F 50.0 °F 75% 30.03 in 10.0 mi Calm Calm - N/A   Clear
8:52 PM 59.0 °F 46.9 °F 64% 30.04 in 10.0 mi North 5.8 mph - N/A   Partly Cloudy
9:52 PM 54.0 °F 48.0 °F 80% 30.06 in 10.0 mi Calm Calm - N/A   Clear
10:52 PM 53.1 °F 46.9 °F 80% 30.06 in 10.0 mi Calm Calm - N/A   Clear
11:52 PM 51.1 °F 46.0 °F 83% 30.05 in 10.0 mi Calm Calm - N/A   Clear